Waukesha, WI

9:55 AM CDT on June 22, 2017 (GMT -0500)
Waukesha County

Weather History for KUES - November, 2010

Change the Weather History Date:

Tuesday, November 16, 2010

  Actual Average Record
Temperature  
Mean Temperature 42 °F -  
Max Temperature 50 °F 45 °F 68 °F (1953)
Min Temperature 33 °F 28 °F 4 °F (1959)
Degree Days  
Heating Degree Days 24    
Moisture  
Dew Point 33 °F    
Average Humidity 81    
Maximum Humidity 93    
Minimum Humidity 43    
Precipitation  
Precipitation 0.00 in - - ()
Sea Level Pressure  
Sea Level Pressure 29.74 in    
Wind  
Wind Speed 6 mph (South)    
Max Wind Speed 12 mph    
Max Gust Speed -    
Visibility 8 miles    
Events Rain    
Averages and records for this station are not official NWS values.
T = Trace of Precipitation, MM = Missing Value Source: NWS Daily Summary

Daily Weather History Graph

Daily Weather History Graph

Search for Another Location

Airport or City:

Trip Planner

Search our weather history database for the weather conditions in past years. The results will help you decide how hot, cold, wet, or windy it might be!

Date:

Astronomy

Nov. 16, 2010 Rise Set
Actual Time 6:46 AM CST 4:28 PM CST
Civil Twilight 6:16 AM CST 4:59 PM CST
Nautical Twilight 5:41 AM CST 5:33 PM CST
Astronomical Twilight 5:07 AM CST 6:07 PM CST
Moon 1:41 PM CST (11/16) 1:41 AM CST (11/16)
Length of Visible Light 10h 42m
Length of Day
9h 41m
Waxing Gibbous, 77% of the Moon is Illuminated
Nov 16
Waxing Gibbous
Nov 21
Full
Nov 28
Last Quarter
Dec 5
New
Dec 13
First Quarter

Hourly Weather History & Observations

Time (CST) Temp. Windchill Dew Point Humidity Pressure Visibility Wind Dir Wind Speed Gust Speed Precip Events Conditions
12:14 AM 38.5 °F 33.4 °F 34.2 °F 84% 29.82 in 10.0 mi South 6.9 mph - N/A   Mostly Cloudy
12:34 AM 39.0 °F 34.0 °F 34.7 °F 84% 29.82 in 7.0 mi South 6.9 mph - N/A   Drizzle
12:54 AM 38.7 °F 32.9 °F 35.1 °F 87% 29.82 in 7.0 mi SSW 8.1 mph - N/A Rain Light Rain
1:14 AM 39.4 °F 35.2 °F 35.4 °F 86% 29.83 in 10.0 mi SSW 5.8 mph - N/A   Light Drizzle
1:34 AM 39.6 °F 34.7 °F 36.0 °F 87% 29.82 in 7.0 mi SSE 6.9 mph - N/A   Drizzle
1:54 AM 39.2 °F 35.0 °F 36.0 °F 88% 29.81 in 5.0 mi South 5.8 mph - N/A Rain Light Rain
2:14 AM 39.2 °F 35.9 °F 36.1 °F 89% 29.82 in 7.0 mi South 4.6 mph - N/A   Light Drizzle
2:34 AM 40.1 °F 36.9 °F 36.1 °F 86% 29.82 in 10.0 mi South 4.6 mph - N/A   Overcast
2:54 AM 39.6 °F 37.4 °F 36.1 °F 88% 29.81 in 7.0 mi South 3.5 mph - N/A Rain Rain
3:14 AM 39.4 °F 35.2 °F 35.8 °F 87% 29.81 in 7.0 mi SSE 5.8 mph - N/A Rain Light Rain
3:34 AM 39.2 °F 35.9 °F 35.6 °F 87% 29.80 in 7.0 mi SSE 4.6 mph - N/A   Overcast
3:54 AM 39.2 °F 37.0 °F 35.6 °F 87% 29.80 in 10.0 mi South 3.5 mph - N/A   Overcast
4:34 AM 39.2 °F 35.0 °F 35.2 °F 86% 29.79 in 10.0 mi South 5.8 mph - N/A   Overcast
4:54 AM 38.7 °F 35.2 °F 35.1 °F 87% 29.80 in 7.0 mi South 4.6 mph - N/A   Overcast
5:50 AM 37.4 °F 29.8 °F 33.8 °F 87% 29.79 in 10.0 mi South 11.5 mph - N/A   Mostly Cloudy
6:45 AM 35.6 °F 27.5 °F 32.0 °F 87% 29.78 in 10.0 mi South 11.5 mph - N/A   Clear
7:45 AM 35.6 °F 28.6 °F 32.0 °F 87% 29.76 in 10.0 mi SSE 9.2 mph - N/A   Clear
8:45 AM 39.2 °F 34.2 °F 32.0 °F 75% 29.75 in 10.0 mi SSE 6.9 mph - N/A   Clear
9:45 AM 42.8 °F 39.3 °F 32.0 °F 66% 29.75 in 10.0 mi SSE 5.8 mph - N/A   Mostly Cloudy
10:45 AM 44.6 °F 39.7 °F 32.0 °F 61% 29.74 in 10.0 mi SSE 9.2 mph - N/A   Scattered Clouds
11:45 AM 46.4 °F 43.5 °F 32.0 °F 57% 29.71 in 10.0 mi South 5.8 mph - N/A   Clear
12:45 PM 50.0 °F - 28.4 °F 43% 29.68 in 10.0 mi South 6.9 mph - N/A   Clear
1:45 PM 50.0 °F - 28.4 °F 43% 29.65 in 10.0 mi SSE 4.6 mph - N/A   Clear
2:45 PM 48.2 °F - 30.2 °F 50% 29.63 in 10.0 mi East 6.9 mph - N/A   Clear
3:45 PM 44.6 °F 40.7 °F 32.0 °F 61% 29.65 in 10.0 mi East 6.9 mph - N/A   Clear
5:45 PM 39.2 °F 35.0 °F 32.0 °F 75% 29.66 in 10.0 mi ESE 5.8 mph - N/A   Clear
6:45 PM 37.4 °F - 32.0 °F 81% 29.66 in 10.0 mi Calm Calm - N/A   Mostly Cloudy
7:45 PM 35.6 °F - 30.2 °F 81% 29.66 in 10.0 mi Calm Calm - N/A   Clear
8:14 PM 33.4 °F - 31.1 °F 91% 29.66 in 7.0 mi Calm Calm - N/A   Clear
8:34 PM 34.3 °F - 31.5 °F 89% 29.66 in 7.0 mi Calm Calm - N/A   Clear
8:45 PM 33.8 °F - 32.0 °F 93% 29.66 in 10.0 mi Calm Calm - N/A   Clear
8:54 PM 34.5 °F - 31.6 °F 89% 29.67 in 7.0 mi Calm Calm - N/A   Clear
9:14 PM 33.8 °F 29.6 °F 31.3 °F 90% 29.67 in 7.0 mi West 4.6 mph - N/A   Clear
9:34 PM 34.7 °F 31.8 °F 31.6 °F 89% 29.68 in 7.0 mi West 3.5 mph - N/A   Clear
9:54 PM 36.0 °F 32.1 °F 32.4 °F 87% 29.68 in 7.0 mi WNW 4.6 mph - N/A   Mostly Cloudy
10:14 PM 35.6 °F 31.7 °F 32.4 °F 88% 29.68 in 7.0 mi WNW 4.6 mph - N/A   Mostly Cloudy
10:34 PM 35.1 °F 32.2 °F 32.4 °F 90% 29.70 in 5.0 mi WNW 3.5 mph - N/A   Mostly Cloudy
10:54 PM 35.6 °F 32.8 °F 32.5 °F 89% 29.70 in 7.0 mi West 3.5 mph - N/A   Mostly Cloudy
11:14 PM 36.0 °F - 33.1 °F 89% 29.71 in 5.0 mi Calm Calm - N/A   Overcast
11:34 PM 34.7 °F 30.6 °F 32.2 °F 91% 29.71 in 5.0 mi West 4.6 mph - N/A   Mostly Cloudy
11:54 PM 34.7 °F 31.8 °F 32.0 °F 90% 29.72 in 5.0 mi WNW 3.5 mph - N/A   Scattered Clouds